星链-3090 (STARLINK-3090 )

导读 | 星芒AI

STARLINK-3090 是 SpaceX 星链计划中的一颗低轨通信卫星,属于第十五批发射的星链卫星群。该卫星运行在约 550 公里的轨道高度,旨在为全球用户提供高速、低延迟的互联网服务。作为星链网络的重要组成部分,STARLINK-3090 采用先进推进系统和激光通信技术,提升网络稳定性和数据传输效率,助力偏远地区实现互联网覆盖。

基本信息
目录编号:
49132
目录名称:
STARLINK-3090
国际标识:
2021-082C
轨道中心:
EARTH
卫星名称:
星链-3090
卫星全名:
星链-3090 (STARLINK-3090 )
卫星状态:
在轨 (已飞行1557 天)
发射日期:
2021-09-14 UTC
国别 :
美国 (US)
星等 :
--
轨道信息
数据来源 国际轨道数据 AOE轨道数据
星历时间 2025-12-19T11:01:54+0800
17小时前
查看轨道信息
2025-12-17T16:00:00+0800
2天前
查看轨道信息
半长轴 6950.177km 6950.178km
偏心率 0.0002968 0.0002938
轨道倾角 70.000° 70.000°
近地点辐角 272.247° 279.384°
升交点赤经 137.457° 141.971°
平近点角 87.835° 132.114°
近地点 569.977km 570.001km
远地点 574.103km 574.085km
周期 96.107分钟 96.107分钟
每日圈数 14.983353 14.983351
详细信息
固有亮度:
5
最大亮度:
2.5
卫星平台:
Starlink v1.5
覆盖范围:
全球
运营商:
太空探索技术公司
运营商所在国:
美国
制造商(研发单位):
太空探索技术公司
制造商所在国:
美国
使用方式:
暂无
卫星简介
星链(Starlink)计划是由太空探索技术公司(SpaceX)提出的一个巨型低轨卫星互联网星座项目,计划在2019年至2024年间在太空搭建由约1.2万颗卫星组成的“星链”网络,其中1584颗将部署在地球上空550千米处的近地轨道,并从2020年开始工作。该卫星仍在工作。
2D轨道图
3D轨道图
轨道高度分析图
轨道倾角分析图
轨道综合分析图
查看轨道综合分析图